,,Stat6,,Stat2,,Stat8,,Stat9,,Stat10,,Wind1,,Wind1,
time,status,PA1M_AVG,status,PR1M_SUM,status,RH1M_AVG,status,SR1M_AVG,status,TA1M_AVG,status,W1dAve1m,status,W1sAve1m,
2007-12-03, 00:00:00,VALID,917.89,VALID,0,VALID,96.1358,VALID,-0.101885,VALID,20.1444,VALID,117,VALID,1.40034,
2007-12-03, 00:01:00,VALID,917.874,VALID,0,VALID,96.0201,VALID,-0.0849042,VALID,20.1636,VALID,125,VALID,1.10885,
2007-12-03, 00:02:00,VALID,917.878,VALID,0,VALID,95.9489,VALID,-0.0679233,VALID,20.1701,VALID,118,VALID,1.0638,
2007-12-03, 00:03:00,VALID,917.854,VALID,0,VALID,96.0265,VALID,-0.101885,VALID,20.1536,VALID,119,VALID,1.12109,
2007-12-03, 00:04:00,VALID,917.839,VALID,0,VALID,96.1829,VALID,-0.0849042,VALID,20.1284,VALID,125,VALID,1.09484,
2007-12-03, 00:05:00,VALID,917.815,VALID,0,VALID,96.2007,VALID,-0.101885,VALID,20.1316,VALID,128,VALID,1.2738,
2007-12-03, 00:06:00,VALID,917.79,VALID,0,VALID,96.1142,VALID,-0.0849042,VALID,20.1471,VALID,120,VALID,0.888626,
2007-12-03, 00:07:00,VALID,917.77,VALID,0,VALID,96.0036,VALID,-0.118866,VALID,20.1765,VALID,119,VALID,0.83457,
2007-12-03, 00:08:00,VALID,917.763,VALID,0,VALID,95.9324,VALID,-0.0849042,VALID,20.183,VALID,122,VALID,1.11151,
2007-12-03, 00:09:00,VALID,917.765,VALID,0,VALID,95.94,VALID,-0.135847,VALID,20.1668,VALID,100,VALID,0.911685,
2007-12-03, 00:10:00,VALID,917.743,VALID,0,VALID,96.0557,VALID,-0.118866,VALID,20.1276,VALID,105,VALID,0.982422,
2007-12-03, 00:11:00,VALID,917.733,VALID,0,VALID,96.1727,VALID,-0.101885,VALID,20.1149,VALID,104,VALID,0.861111,
2007-12-03, 00:12:00,VALID,917.729,VALID,0,VALID,96.2834,VALID,0,VALID,20.0969,VALID,108,VALID,1.3285,
2007-12-03, 00:13:00,VALID,917.719,VALID,0,VALID,96.3927,VALID,0,VALID,20.0777,VALID,105,VALID,1.12258,
2007-12-03, 00:14:00,VALID,917.701,VALID,0,VALID,96.441,VALID,0.0169808,VALID,20.0744,VALID,106,VALID,1.32734,
2007-12-03, 00:15:00,VALID,917.706,VALID,0,VALID,96.4423,VALID,0,VALID,20.0709,VALID,113,VALID,1.4544,
2007-12-03, 00:16:00,VALID,917.684,VALID,0,VALID,96.4894,VALID,0,VALID,20.0612,VALID,108,VALID,1.4842,
2007-12-03, 00:17:00,VALID,917.703,VALID,0,VALID,96.5695,VALID,0,VALID,20.0352,VALID,106,VALID,1.10975,
2007-12-03, 00:18:00,VALID,917.692,VALID,0,VALID,96.675,VALID,0.0169808,VALID,20.026,VALID,97,VALID,1.24668,
2007-12-03, 00:19:00,VALID,917.693,VALID,0,VALID,96.7984,VALID,0,VALID,20.0028,VALID,112,VALID,1.60483,
2007-12-03, 00:20:00,VALID,917.702,VALID,0,VALID,96.8632,VALID,0.0169808,VALID,19.9995,VALID,104,VALID,1.7587,
2007-12-03, 00:21:00,VALID,917.694,VALID,0,VALID,96.8721,VALID,0.0169808,VALID,20.0063,VALID,119,VALID,1.71911,
2007-12-03, 00:22:00,VALID,917.706,VALID,0,VALID,96.8836,VALID,0.0169808,VALID,20.013,VALID,113,VALID,1.22441,
2007-12-03, 00:23:00,VALID,917.696,VALID,0,VALID,96.9039,VALID,0,VALID,20.0093,VALID,122,VALID,1.57946,
2007-12-03, 00:24:00,VALID,917.701,VALID,0,VALID,96.8314,VALID,0,VALID,20.026,VALID,113,VALID,1.72024,
2007-12-03, 00:25:00,VALID,917.709,VALID,0,VALID,96.8238,VALID,0,VALID,20.0287,VALID,115,VALID,1.37518,
2007-12-03, 00:26:00,VALID,917.702,VALID,0,VALID,96.8467,VALID,0,VALID,20.0263,VALID,118,VALID,1.09449,
2007-12-03, 00:27:00,VALID,917.691,VALID,0,VALID,96.895,VALID,0.0169808,VALID,19.9931,VALID,127,VALID,1.8276,
2007-12-03, 00:28:00,VALID,917.673,VALID,0,VALID,96.9802,VALID,0,VALID,19.9868,VALID,133,VALID,2.27115,
2007-12-03, 00:29:00,VALID,917.661,VALID,0,VALID,96.8937,VALID,0.0169808,VALID,20.0125,VALID,114,VALID,1.50577,
2007-12-03, 00:30:00,VALID,917.643,VALID,0,VALID,96.8238,VALID,0,VALID,20.0193,VALID,124,VALID,1.66257,
2007-12-03, 00:31:00,VALID,917.621,VALID,0,VALID,96.8594,VALID,0.0169808,VALID,20.0125,VALID,124,VALID,1.47582,
2007-12-03, 00:32:00,VALID,917.62,VALID,0,VALID,96.9039,VALID,0.0169808,VALID,20.0093,VALID,127,VALID,1.99745,
2007-12-03, 00:33:00,VALID,917.589,VALID,0,VALID,96.8734,VALID,0.0169808,VALID,20.026,VALID,118,VALID,1.27046,
2007-12-03, 00:34:00,VALID,917.583,VALID,0,VALID,96.9052,VALID,0,VALID,20.006,VALID,110,VALID,1.23289,
2007-12-03, 00:35:00,VALID,917.569,VALID,0,VALID,96.9955,VALID,0.0169808,VALID,19.9931,VALID,105,VALID,1.93278,
2007-12-03, 00:36:00,VALID,917.551,VALID,0,VALID,97.0501,VALID,0.0339617,VALID,19.9901,VALID,125,VALID,1.72674,
2007-12-03, 00:37:00,VALID,917.555,VALID,0,VALID,97.0094,VALID,0,VALID,19.9898,VALID,131,VALID,1.80636,
2007-12-03, 00:38:00,VALID,917.553,VALID,0,VALID,96.9395,VALID,0,VALID,20.0063,VALID,142,VALID,2.21566,
2007-12-03, 00:39:00,VALID,917.543,VALID,0,VALID,96.9217,VALID,0,VALID,20.0193,VALID,143,VALID,1.374,
2007-12-03, 00:40:00,VALID,917.545,VALID,0,VALID,96.8988,VALID,0,VALID,20.0125,VALID,143,VALID,1.29603,
2007-12-03, 00:41:00,VALID,917.535,VALID,0,VALID,96.9293,VALID,0.0509425,VALID,20.0123,VALID,160,VALID,1.66163,
2007-12-03, 00:42:00,VALID,917.549,VALID,0,VALID,96.9153,VALID,-0.0339617,VALID,20.0105,VALID,131,VALID,1.92281,
2007-12-03, 00:43:00,VALID,917.562,VALID,0,VALID,96.8912,VALID,-0.101885,VALID,20.0046,VALID,130,VALID,2.09245,
2007-12-03, 00:44:00,VALID,917.547,VALID,0,VALID,96.806,VALID,-0.0679233,VALID,20.0275,VALID,133,VALID,1.8939,
2007-12-03, 00:45:00,VALID,917.533,VALID,0,VALID,96.7984,VALID,-0.0679233,VALID,20.027,VALID,144,VALID,1.68559,
2007-12-03, 00:46:00,VALID,917.518,VALID,0,VALID,96.8238,VALID,-0.0849042,VALID,20.0173,VALID,139,VALID,1.80915,
2007-12-03, 00:47:00,VALID,917.508,VALID,0,VALID,96.8174,VALID,-0.101885,VALID,20.0178,VALID,136,VALID,1.72793,
2007-12-03, 00:48:00,VALID,917.5,VALID,0,VALID,96.7958,VALID,-0.0849042,VALID,20.0143,VALID,138,VALID,1.42113,
2007-12-03, 00:49:00,VALID,917.49,VALID,0,VALID,96.764,VALID,-0.118866,VALID,20.0175,VALID,133,VALID,1.9315,
2007-12-03, 00:50:00,VALID,917.496,VALID,0,VALID,96.8136,VALID,-0.0849042,VALID,20.0013,VALID,134,VALID,1.15681,
2007-12-03, 00:51:00,VALID,917.496,VALID,0,VALID,96.9344,VALID,-0.118866,VALID,19.9783,VALID,132,VALID,1.04106,
2007-12-03, 00:52:00,VALID,917.501,VALID,0,VALID,97.0311,VALID,-0.0849042,VALID,19.9491,VALID,146,VALID,1.46652,
2007-12-03, 00:53:00,VALID,917.51,VALID,0,VALID,97.1557,VALID,-0.0849042,VALID,19.9529,VALID,141,VALID,1.55451,
2007-12-03, 00:54:00,VALID,917.511,VALID,0,VALID,97.2498,VALID,-0.101885,VALID,19.9332,VALID,137,VALID,1.4533,
2007-12-03, 00:55:00,VALID,917.513,VALID,0,VALID,97.3528,VALID,-0.0679233,VALID,19.9167,VALID,133,VALID,1.29809,
2007-12-03, 00:56:00,VALID,917.521,VALID,0,VALID,97.4354,VALID,-0.101885,VALID,19.8975,VALID,143,VALID,1.59375,
2007-12-03, 00:57:00,VALID,917.525,VALID,0,VALID,97.485,VALID,0,VALID,19.893,VALID,147,VALID,1.43788,
2007-12-03, 00:58:00,VALID,917.543,VALID,0,VALID,97.5308,VALID,-0.0169808,VALID,19.8862,VALID,133,VALID,1.68638,
2007-12-03, 00:59:00,VALID,917.555,VALID,0,VALID,97.6084,VALID,-0.0509425,VALID,19.8705,VALID,139,VALID,1.78223,
2007-12-03, 01:00:00,VALID,917.556,VALID,0,VALID,97.6351,VALID,0.0169808,VALID,19.877,VALID,138,VALID,1.43387,
2007-12-03, 01:01:00,VALID,917.551,VALID,0,VALID,97.6287,VALID,0.0169808,VALID,19.8765,VALID,132,VALID,1.48892,
2007-12-03, 01:02:00,VALID,917.551,VALID,0,VALID,97.5639,VALID,0,VALID,19.8862,VALID,140,VALID,1.53782,
2007-12-03, 01:03:00,VALID,917.538,VALID,0,VALID,97.5232,VALID,0,VALID,19.9025,VALID,136,VALID,1.63316,
2007-12-03, 01:04:00,VALID,917.539,VALID,0,VALID,97.4392,VALID,0,VALID,19.9025,VALID,144,VALID,1.47303,
2007-12-03, 01:05:00,VALID,917.521,VALID,0,VALID,97.382,VALID,0,VALID,19.9157,VALID,136,VALID,1.5277,
2007-12-03, 01:06:00,VALID,917.507,VALID,0,VALID,97.3655,VALID,-0.0169808,VALID,19.9224,VALID,129,VALID,1.64771,
2007-12-03, 01:07:00,VALID,917.491,VALID,0,VALID,97.3362,VALID,0,VALID,19.9327,VALID,132,VALID,1.68906,
2007-12-03, 01:08:00,VALID,917.469,VALID,0,VALID,97.3223,VALID,-0.0169808,VALID,19.9317,VALID,129,VALID,1.36509,
2007-12-03, 01:09:00,VALID,917.439,VALID,0,VALID,97.3388,VALID,0,VALID,19.9387,VALID,129,VALID,1.41525,
2007-12-03, 01:10:00,VALID,917.41,VALID,0,VALID,97.3299,VALID,0.0169808,VALID,19.9284,VALID,126,VALID,1.77725,
2007-12-03, 01:11:00,VALID,917.371,VALID,0,VALID,97.3235,VALID,0.0169808,VALID,19.9384,VALID,126,VALID,1.56585,
2007-12-03, 01:12:00,VALID,917.349,VALID,0,VALID,97.335,VALID,-0.0339617,VALID,19.9252,VALID,126,VALID,1.24746,
2007-12-03, 01:13:00,VALID,917.319,VALID,0,VALID,97.349,VALID,0,VALID,19.9154,VALID,114,VALID,1.44687,
2007-12-03, 01:14:00,VALID,917.303,VALID,0,VALID,97.3566,VALID,0,VALID,19.9087,VALID,112,VALID,1.21715,
2007-12-03, 01:15:00,VALID,917.279,VALID,0,VALID,97.3833,VALID,0,VALID,19.906,VALID,127,VALID,1.48565,
2007-12-03, 01:16:00,VALID,917.266,VALID,0,VALID,97.3451,VALID,0,VALID,19.896,VALID,118,VALID,1.58327,
2007-12-03, 01:17:00,VALID,917.263,VALID,0,VALID,97.2396,VALID,0.0339617,VALID,19.9055,VALID,132,VALID,1.50632,
2007-12-03, 01:18:00,VALID,917.255,VALID,0,VALID,97.1048,VALID,0,VALID,19.9249,VALID,127,VALID,1.66406,
2007-12-03, 01:19:00,VALID,917.253,VALID,0,VALID,97.0412,VALID,0.0339617,VALID,19.9382,VALID,118,VALID,1.2589,
2007-12-03, 01:20:00,VALID,917.26,VALID,0,VALID,96.9853,VALID,-0.0169808,VALID,19.9481,VALID,123,VALID,0.916788,
2007-12-03, 01:21:00,VALID,917.268,VALID,0,VALID,96.9382,VALID,0.0339617,VALID,19.9574,VALID,125,VALID,1.49134,
2007-12-03, 01:22:00,VALID,917.273,VALID,0,VALID,96.8378,VALID,0.0169808,VALID,19.9506,VALID,127,VALID,2.02363,
2007-12-03, 01:23:00,VALID,917.286,VALID,0,VALID,96.633,VALID,0,VALID,19.9871,VALID,135,VALID,1.83389,
2007-12-03, 01:24:00,VALID,917.308,VALID,0,VALID,96.5135,VALID,0.0169808,VALID,20.0125,VALID,153,VALID,1.54725,
2007-12-03, 01:25:00,VALID,917.304,VALID,0,VALID,96.4525,VALID,0.0169808,VALID,20.0228,VALID,139,VALID,1.41908,
2007-12-03, 01:26:00,VALID,917.325,VALID,0,VALID,96.4347,VALID,0.0169808,VALID,20.0255,VALID,153,VALID,0.899528,
2007-12-03, 01:27:00,VALID,917.322,VALID,0,VALID,96.4385,VALID,0,VALID,20.0295,VALID,170,VALID,1.02362,
2007-12-03, 01:28:00,VALID,917.326,VALID,0,VALID,96.4766,VALID,0,VALID,20.026,VALID,150,VALID,0.917614,
2007-12-03, 01:29:00,VALID,917.309,VALID,0,VALID,96.5211,VALID,0,VALID,20.013,VALID,180,VALID,1.3641,
2007-12-03, 01:30:00,VALID,917.307,VALID,0,VALID,96.586,VALID,-0.0169808,VALID,19.9873,VALID,175,VALID,1.26344,
2007-12-03, 01:31:00,VALID,917.305,VALID,0,VALID,96.6394,VALID,-0.0339617,VALID,19.9876,VALID,151,VALID,1.18611,
2007-12-03, 01:32:00,VALID,917.295,VALID,0,VALID,96.7348,VALID,0.0169808,VALID,19.9708,VALID,150,VALID,1.44741,
2007-12-03, 01:33:00,VALID,917.285,VALID,0,VALID,96.8657,VALID,0,VALID,19.9414,VALID,145,VALID,1.16602,
2007-12-03, 01:34:00,VALID,917.272,VALID,0,VALID,97.0247,VALID,-0.0169808,VALID,19.9154,VALID,152,VALID,1.26029,
2007-12-03, 01:35:00,VALID,917.24,VALID,0,VALID,97.1468,VALID,0,VALID,19.8902,VALID,139,VALID,0.955793,
2007-12-03, 01:36:00,VALID,917.226,VALID,0,VALID,97.1773,VALID,0,VALID,19.8765,VALID,139,VALID,0.932958,
2007-12-03, 01:37:00,VALID,917.209,VALID,0,VALID,97.1582,VALID,0,VALID,19.8673,VALID,130,VALID,1.37481,
2007-12-03, 01:38:00,VALID,917.203,VALID,0,VALID,97.115,VALID,0,VALID,19.8673,VALID,132,VALID,1.49948,
2007-12-03, 01:39:00,VALID,917.182,VALID,0,VALID,97.0209,VALID,-0.0169808,VALID,19.8735,VALID,136,VALID,1.54403,
2007-12-03, 01:40:00,VALID,917.164,VALID,0,VALID,96.9153,VALID,-0.0169808,VALID,19.8832,VALID,136,VALID,1.51215,
2007-12-03, 01:41:00,VALID,917.164,VALID,0,VALID,96.8149,VALID,-0.0169808,VALID,19.8797,VALID,133,VALID,1.68516,
2007-12-03, 01:42:00,VALID,917.148,VALID,0,VALID,96.6826,VALID,0.0169808,VALID,19.8862,VALID,146,VALID,1.82158,
2007-12-03, 01:43:00,VALID,917.13,VALID,0,VALID,96.4474,VALID,0.0169808,VALID,19.9319,VALID,149,VALID,1.80035,
2007-12-03, 01:44:00,VALID,917.11,VALID,0,VALID,96.1842,VALID,0,VALID,19.9649,VALID,140,VALID,2.23656,
2007-12-03, 01:45:00,VALID,917.096,VALID,0,VALID,95.9909,VALID,0.0169808,VALID,19.9963,VALID,138,VALID,1.38175,
2007-12-03, 01:46:00,VALID,917.085,VALID,0,VALID,95.9324,VALID,0.0169808,VALID,20.0033,VALID,129,VALID,2.08101,
2007-12-03, 01:47:00,VALID,917.079,VALID,0,VALID,95.9527,VALID,0,VALID,20.0065,VALID,134,VALID,1.58576,
2007-12-03, 01:48:00,VALID,917.088,VALID,0,VALID,95.954,VALID,0,VALID,20.0093,VALID,115,VALID,1.38388,
2007-12-03, 01:49:00,VALID,917.083,VALID,0,VALID,95.9947,VALID,0.0169808,VALID,20.0158,VALID,125,VALID,1.82504,
2007-12-03, 01:50:00,VALID,917.087,VALID,0,VALID,96.0557,VALID,0,VALID,20.0158,VALID,117,VALID,1.38114,
2007-12-03, 01:51:00,VALID,917.074,VALID,0,VALID,96.1549,VALID,-0.0169808,VALID,20.0098,VALID,134,VALID,1.58441,
2007-12-03, 01:52:00,VALID,917.066,VALID,0,VALID,96.2808,VALID,0,VALID,19.9906,VALID,123,VALID,1.37429,
2007-12-03, 01:53:00,VALID,917.043,VALID,0,VALID,96.3495,VALID,0.0169808,VALID,19.9738,VALID,128,VALID,1.22656,
2007-12-03, 01:54:00,VALID,917.03,VALID,0,VALID,96.3864,VALID,0,VALID,19.9676,VALID,121,VALID,1.17051,
2007-12-03, 01:55:00,VALID,917.013,VALID,0,VALID,96.4181,VALID,0.0169808,VALID,19.9544,VALID,125,VALID,1.29137,
2007-12-03, 01:56:00,VALID,916.989,VALID,0,VALID,96.4092,VALID,0,VALID,19.9611,VALID,124,VALID,1.06957,
2007-12-03, 01:57:00,VALID,916.968,VALID,0,VALID,96.4054,VALID,-0.0169808,VALID,19.9609,VALID,137,VALID,1.37355,
2007-12-03, 01:58:00,VALID,916.958,VALID,0,VALID,96.3635,VALID,0,VALID,19.9574,VALID,137,VALID,1.30396,
2007-12-03, 01:59:00,VALID,916.951,VALID,0,VALID,96.352,VALID,0,VALID,19.9609,VALID,133,VALID,1.05396,
2007-12-03, 02:00:00,VALID,916.944,VALID,0,VALID,96.3647,VALID,0,VALID,19.9511,VALID,123,VALID,1.33281,
2007-12-03, 02:01:00,VALID,916.924,VALID,0,VALID,96.3965,VALID,0,VALID,19.9317,VALID,120,VALID,1.16715,
2007-12-03, 02:02:00,VALID,916.897,VALID,0,VALID,96.3978,VALID,0,VALID,19.9284,VALID,138,VALID,1.21317,
2007-12-03, 02:03:00,VALID,916.874,VALID,0,VALID,96.3406,VALID,-0.0169808,VALID,19.9586,VALID,132,VALID,0.898819,
2007-12-03, 02:04:00,VALID,916.872,VALID,0,VALID,96.3164,VALID,0,VALID,19.9349,VALID,135,VALID,1.15443,
2007-12-03, 02:05:00,VALID,916.869,VALID,0,VALID,96.366,VALID,0,VALID,19.9217,VALID,125,VALID,1.18677,
2007-12-03, 02:06:00,VALID,916.881,VALID,0,VALID,96.4118,VALID,0,VALID,19.9122,VALID,118,VALID,0.853711,
2007-12-03, 02:07:00,VALID,916.883,VALID,0,VALID,96.4512,VALID,0.0169808,VALID,19.9124,VALID,119,VALID,1.14149,
2007-12-03, 02:08:00,VALID,916.887,VALID,0,VALID,96.4639,VALID,0,VALID,19.9025,VALID,115,VALID,1.08984,
2007-12-03, 02:09:00,VALID,916.902,VALID,0,VALID,96.4601,VALID,0,VALID,19.9055,VALID,100,VALID,0.701982,
2007-12-03, 02:10:00,VALID,916.897,VALID,0,VALID,96.469,VALID,0,VALID,19.899,VALID,127,VALID,0.901634,
2007-12-03, 02:11:00,VALID,916.893,VALID,0,VALID,96.4995,VALID,0,VALID,19.9025,VALID,128,VALID,0.864099,
2007-12-03, 02:12:00,VALID,916.879,VALID,0,VALID,96.4614,VALID,-0.101885,VALID,19.9102,VALID,113,VALID,0.641352,
2007-12-03, 02:13:00,VALID,916.884,VALID,0,VALID,96.4042,VALID,-0.101885,VALID,19.9237,VALID,104,VALID,0.691016,
2007-12-03, 02:14:00,VALID,916.885,VALID,0,VALID,96.3571,VALID,-0.101885,VALID,19.9264,VALID,108,VALID,0.706076,
2007-12-03, 02:15:00,VALID,916.872,VALID,0,VALID,96.2923,VALID,-0.0849042,VALID,19.9526,VALID,113,VALID,1.01217,
2007-12-03, 02:16:00,VALID,916.882,VALID,0,VALID,96.2414,VALID,-0.101885,VALID,19.9689,VALID,74,VALID,0.700174,
2007-12-03, 02:17:00,VALID,916.88,VALID,0,VALID,96.2401,VALID,-0.0849042,VALID,19.9621,VALID,78,VALID,0.799964,
2007-12-03, 02:18:00,VALID,916.887,VALID,0,VALID,96.2617,VALID,-0.0849042,VALID,19.9621,VALID,73,VALID,0.630273,
2007-12-03, 02:19:00,VALID,916.88,VALID,0,VALID,96.3151,VALID,-0.0679233,VALID,19.9556,VALID,65,VALID,0.400484,
2007-12-03, 02:20:00,VALID,916.886,VALID,0,VALID,96.3419,VALID,-0.0849042,VALID,19.9454,VALID,65,VALID,0.351017,
2007-12-03, 02:21:00,VALID,916.88,VALID,0,VALID,96.3813,VALID,-0.101885,VALID,19.9556,VALID,50,VALID,0.579215,
2007-12-03, 02:22:00,VALID,916.875,VALID,0,VALID,96.3711,VALID,-0.0509425,VALID,19.9491,VALID,50,VALID,0.403409,
2007-12-03, 02:23:00,VALID,916.871,VALID,0,VALID,96.3457,VALID,-0.0849042,VALID,19.9427,VALID,86,VALID,0.51863,
2007-12-03, 02:24:00,VALID,916.872,VALID,0,VALID,96.3215,VALID,-0.0509425,VALID,19.9456,VALID,86,VALID,0.525856,
2007-12-03, 02:25:00,VALID,916.868,VALID,0,VALID,96.3228,VALID,-0.101885,VALID,19.9459,VALID,90,VALID,0.571701,
2007-12-03, 02:26:00,VALID,916.863,VALID,0,VALID,96.3647,VALID,-0.0849042,VALID,19.9491,VALID,117,VALID,0.596839,
2007-12-03, 02:27:00,VALID,916.86,VALID,0,VALID,96.3914,VALID,-0.101885,VALID,19.9394,VALID,137,VALID,0.753374,
2007-12-03, 02:28:00,VALID,916.862,VALID,0,VALID,96.4347,VALID,-0.101885,VALID,19.9559,VALID,101,VALID,0.481836,
2007-12-03, 02:29:00,VALID,916.859,VALID,0,VALID,96.3546,VALID,-0.0679233,VALID,19.9818,VALID,87,VALID,0,
2007-12-03, 02:30:00,VALID,916.854,VALID,0,VALID,96.4232,VALID,-0.0849042,VALID,20.0043,VALID,50,VALID,0.865327,
2007-12-03, 02:31:00,VALID,916.845,VALID,0,VALID,96.3902,VALID,-0.101885,VALID,20.0016,VALID,16,VALID,1.13826,
2007-12-03, 02:32:00,VALID,916.828,VALID,0,VALID,96.4843,VALID,-0.101885,VALID,19.9651,VALID,17,VALID,0.400391,
2007-12-03, 02:33:00,VALID,916.804,VALID,0,VALID,96.6229,VALID,-0.0849042,VALID,19.9491,VALID,17,VALID,0.0826671,
2007-12-03, 02:34:00,VALID,916.788,VALID,0,VALID,96.6979,VALID,-0.101885,VALID,19.9297,VALID,17,VALID,0.076029,
2007-12-03, 02:35:00,VALID,916.772,VALID,0,VALID,96.792,VALID,-0.118866,VALID,19.9267,VALID,17,VALID,0.150073,
2007-12-03, 02:36:00,VALID,916.77,VALID,0,VALID,96.984,VALID,-0.101885,VALID,19.9204,VALID,17,VALID,0.293679,
2007-12-03, 02:37:00,VALID,916.757,VALID,0,VALID,97.0819,VALID,-0.101885,VALID,19.9037,VALID,17,VALID,0.410792,
2007-12-03, 02:38:00,VALID,916.748,VALID,0,VALID,97.1913,VALID,-0.0849042,VALID,19.8745,VALID,348,VALID,0.374809,
2007-12-03, 02:39:00,VALID,916.76,VALID,0,VALID,97.3286,VALID,-0.101885,VALID,19.8321,VALID,329,VALID,0.271439,
2007-12-03, 02:40:00,VALID,916.764,VALID,0,VALID,97.485,VALID,-0.0849042,VALID,19.7966,VALID,329,VALID,0.151811,
2007-12-03, 02:41:00,VALID,916.777,VALID,0,VALID,97.7012,VALID,-0.0849042,VALID,19.7774,VALID,329,VALID,0,
2007-12-03, 02:42:00,VALID,916.776,VALID,0,VALID,97.7775,VALID,-0.0849042,VALID,19.7612,VALID,329,VALID,0,
2007-12-03, 02:43:00,VALID,916.769,VALID,0,VALID,97.836,VALID,-0.0679233,VALID,19.7512,VALID,329,VALID,0,
2007-12-03, 02:44:00,VALID,916.766,VALID,0,VALID,97.9352,VALID,-0.101885,VALID,19.738,VALID,329,VALID,0,
2007-12-03, 02:45:00,VALID,916.763,VALID,0,VALID,98.014,VALID,-0.152827,VALID,19.758,VALID,329,VALID,0,
2007-12-03, 02:46:00,VALID,916.757,VALID,0,VALID,98.0382,VALID,-0.101885,VALID,19.7542,VALID,329,VALID,0,
2007-12-03, 02:47:00,VALID,916.751,VALID,0,VALID,98.0598,VALID,-0.0679233,VALID,19.7772,VALID,329,VALID,0,
2007-12-03, 02:48:00,VALID,916.761,VALID,0,VALID,98.1844,VALID,-0.118866,VALID,19.7872,VALID,329,VALID,0,
2007-12-03, 02:49:00,VALID,916.751,VALID,0,VALID,98.1793,VALID,-0.101885,VALID,19.7902,VALID,329,VALID,0,
2007-12-03, 02:50:00,VALID,916.742,VALID,0,VALID,98.1221,VALID,-0.101885,VALID,19.7777,VALID,329,VALID,0,
2007-12-03, 02:51:00,VALID,916.727,VALID,0,VALID,98.0661,VALID,-0.0849042,VALID,19.7674,VALID,329,VALID,0,
2007-12-03, 02:52:00,VALID,916.722,VALID,0,VALID,98.0522,VALID,-0.118866,VALID,19.7612,VALID,329,VALID,0,
2007-12-03, 02:53:00,VALID,916.699,VALID,0,VALID,97.9949,VALID,-0.0849042,VALID,19.748,VALID,329,VALID,0.216518,
2007-12-03, 02:54:00,VALID,916.685,VALID,0,VALID,97.9441,VALID,-0.0849042,VALID,19.7452,VALID,329,VALID,0.279687,
2007-12-03, 02:55:00,VALID,916.662,VALID,0,VALID,97.9364,VALID,-0.101885,VALID,19.735,VALID,329,VALID,0,
2007-12-03, 02:56:00,VALID,916.646,VALID,0,VALID,97.9492,VALID,-0.0849042,VALID,19.7382,VALID,329,VALID,0,
2007-12-03, 02:57:00,VALID,916.634,VALID,0,VALID,97.9403,VALID,-0.118866,VALID,19.7417,VALID,329,VALID,0,
2007-12-03, 02:58:00,VALID,916.604,VALID,0,VALID,97.9021,VALID,-0.101885,VALID,19.735,VALID,329,VALID,0,
2007-12-03, 02:59:00,VALID,916.597,VALID,0,VALID,97.8792,VALID,-0.135847,VALID,19.7482,VALID,329,VALID,0,
2007-12-03, 03:00:00,VALID,916.58,VALID,0,VALID,97.9161,VALID,-0.118866,VALID,19.758,VALID,329,VALID,0,
2007-12-03, 03:01:00,VALID,916.559,VALID,0,VALID,97.8487,VALID,-0.135847,VALID,19.7779,VALID,329,VALID,0,
2007-12-03, 03:02:00,VALID,916.552,VALID,0,VALID,97.8779,VALID,-0.135847,VALID,19.7877,VALID,329,VALID,0,
2007-12-03, 03:03:00,VALID,916.532,VALID,0,VALID,97.8182,VALID,-0.135847,VALID,19.7839,VALID,329,VALID,0,
2007-12-03, 03:04:00,VALID,916.529,VALID,0,VALID,97.8207,VALID,-0.101885,VALID,19.7839,VALID,329,VALID,0,
2007-12-03, 03:05:00,VALID,916.525,VALID,0,VALID,97.8601,VALID,-0.152827,VALID,19.7904,VALID,329,VALID,0,
2007-12-03, 03:06:00,VALID,916.521,VALID,0,VALID,97.9225,VALID,-0.118866,VALID,19.8136,VALID,329,VALID,0,
2007-12-03, 03:07:00,VALID,916.514,VALID,0,VALID,97.9886,VALID,-0.101885,VALID,19.8131,VALID,329,VALID,0,
2007-12-03, 03:08:01,VALID,916.507,VALID,0,VALID,98.0305,VALID,-0.169808,VALID,19.8261,VALID,329,VALID,0,
2007-12-03, 03:09:01,VALID,916.492,VALID,0,VALID,97.8958,VALID,-0.101885,VALID,19.8231,VALID,329,VALID,0.199023,
2007-12-03, 03:10:01,VALID,916.482,VALID,0,VALID,97.8856,VALID,-0.118866,VALID,19.8034,VALID,329,VALID,0.0573552,
2007-12-03, 03:11:00,VALID,916.474,VALID,0,VALID,97.9708,VALID,-0.118866,VALID,19.7809,VALID,329,VALID,0,
2007-12-03, 03:12:01,VALID,916.457,VALID,0,VALID,98.042,VALID,0,VALID,19.7497,VALID,329,VALID,0,
2007-12-03, 03:13:00,VALID,916.439,VALID,0,VALID,98.0954,VALID,-0.0679233,VALID,19.7303,VALID,329,VALID,0,
2007-12-03, 03:14:00,VALID,916.421,VALID,0,VALID,98.2137,VALID,-0.0169808,VALID,19.7472,VALID,329,VALID,0,
2007-12-03, 03:15:01,VALID,916.415,VALID,0,VALID,98.1895,VALID,0,VALID,19.7175,VALID,45,VALID,0.11942,
2007-12-03, 03:16:00,VALID,916.4,VALID,0,VALID,98.2493,VALID,-0.0339617,VALID,19.6916,VALID,114,VALID,0.84395,
2007-12-03, 03:17:00,VALID,916.389,VALID,0,VALID,98.351,VALID,0,VALID,19.6881,VALID,166,VALID,1.42374,
2007-12-03, 03:18:00,VALID,916.379,VALID,0,VALID,98.2696,VALID,0,VALID,19.6816,VALID,165,VALID,1.52567,
2007-12-03, 03:19:00,VALID,916.367,VALID,0,VALID,98.3675,VALID,-0.0169808,VALID,19.6783,VALID,165,VALID,1.41122,
2007-12-03, 03:20:00,VALID,916.377,VALID,0,VALID,98.5315,VALID,0,VALID,19.6624,VALID,159,VALID,1.04629,
2007-12-03, 03:21:00,VALID,916.377,VALID,0,VALID,98.6778,VALID,-0.0169808,VALID,19.6367,VALID,165,VALID,1.33441,
2007-12-03, 03:22:00,VALID,916.384,VALID,0,VALID,98.8177,VALID,0,VALID,19.6072,VALID,161,VALID,1.00242,
2007-12-03, 03:23:01,VALID,916.42,VALID,0,VALID,98.9308,VALID,-0.0169808,VALID,19.575,VALID,152,VALID,0.960565,
2007-12-03, 03:24:00,VALID,916.437,VALID,0,VALID,99.0567,VALID,-0.0339617,VALID,19.5496,VALID,122,VALID,0.866797,
2007-12-03, 03:25:01,VALID,916.446,VALID,0,VALID,99.1902,VALID,0,VALID,19.5131,VALID,117,VALID,0.473828,
2007-12-03, 03:26:00,VALID,916.451,VALID,0,VALID,99.2805,VALID,-0.0169808,VALID,19.4907,VALID,119,VALID,0.409157,
2007-12-03, 03:27:01,VALID,916.45,VALID,0,VALID,99.1813,VALID,-0.118866,VALID,19.4632,VALID,157,VALID,0.526972,
2007-12-03, 03:28:00,VALID,916.451,VALID,0,VALID,99.1635,VALID,-0.101885,VALID,19.4495,VALID,170,VALID,0.695992,
2007-12-03, 03:29:01,VALID,916.439,VALID,0,VALID,99.0682,VALID,-0.135847,VALID,19.4657,VALID,164,VALID,0.861523,
2007-12-03, 03:30:00,VALID,916.42,VALID,0,VALID,98.8736,VALID,-0.0849042,VALID,19.4595,VALID,161,VALID,1.06101,
2007-12-03, 03:31:00,VALID,916.414,VALID,0,VALID,98.7833,VALID,-0.118866,VALID,19.463,VALID,175,VALID,0.844122,
2007-12-03, 03:32:01,VALID,916.416,VALID,0,VALID,98.7439,VALID,-0.118866,VALID,19.4789,VALID,173,VALID,0.821646,
2007-12-03, 03:33:01,VALID,916.431,VALID,0,VALID,98.6625,VALID,-0.135847,VALID,19.4887,VALID,180,VALID,0.849516,
2007-12-03, 03:34:00,VALID,916.444,VALID,0,VALID,98.5303,VALID,-0.118866,VALID,19.4887,VALID,180,VALID,0.82066,
2007-12-03, 03:35:00,VALID,916.457,VALID,0,VALID,98.5227,VALID,-0.118866,VALID,19.5016,VALID,165,VALID,0.408975,